Regional Weather Roundup
Issued by NWS

Home | Current Version | Previous Version | Text Only | Print | Product List | Glossary Off
Versions: 1 2 3 4 5 6 7 8 9 10 11 12 13 14 15 16 17 18 19 20 21 22 23 24 25 26 27 28 29 30 31 32 33 34 35 36 37 38 39 40 41 42 43 44 45 46 47 48 49 50

000
ASUS43 KLOT 230008
RWRIL

ILLINOIS REGIONAL WEATHER ROUNDUP
NATIONAL WEATHER SERVICE CHICAGO/ROMEOVILLE IL
700 PM CDT SUN APR 22 2018

NOTE: "FAIR" INDICATES FEW OR NO CLOUDS BELOW 12,000 FEET WITH NO
SIGNIFICANT WEATHER AND/OR OBSTRUCTIONS TO VISIBILITY.

* THESE STATIONS ARE NOT UNDER NWS QUALITY CONTROL. THEY ALSO MAY NOT
  REPORT WEATHER SUCH AS PRECIPITATION OR FOG.

ILZ001-002-007-009-015-016-024-230100-
NORTHWEST ILLINOIS

CITY           SKY/WX    TMP DP  RH WIND       PRES   REMARKS
MOLINE         CLOUDY    64  28  25 E17       30.18R
6HR MIN TEMP:  64; 6HR MAX TEMP:  69;

STERLING*      FAIR      60  27  28 E14       30.22R
SAVANNA*       FAIR      61  29  29 E13       30.22R
$$

ILZ003-004-008-010-011-017-018-230100-
NORTH CENTRAL ILLINOIS

CITY           SKY/WX    TMP DP  RH WIND       PRES   REMARKS
ROCKFORD       MOCLDY    58  21  24 E8        30.26R
6HR MIN TEMP:  58; 6HR MAX TEMP:  64;

FREEPORT*      FAIR      58  27  29 E13       30.26R
ROCHELLE*      FAIR      58  27  30 E12       30.24R
DE KALB*       FAIR      56  27  32 E10       30.24S
PERU*          FAIR      63  29  28 E16       30.20S
$$

ILZ005-006-012>014-019>023-230100-
NORTHEAST ILLINOIS

CITY           SKY/WX    TMP DP  RH WIND       PRES   REMARKS
CHICAGO-OHARE  MOCLDY    55  25  31 NE12      30.24F
6HR MIN TEMP:  55; 6HR MAX TEMP:  62;

CHICAGO-MIDWAY MOCLDY    56  25  30 NE16      30.25S
6HR MIN TEMP:  56; 6HR MAX TEMP:  62;

AURORA         FAIR      58  25  28 NE15      30.23F
6HR MIN TEMP:  58; 6HR MAX TEMP:  65;

LANSING*       FAIR      49  33  53 NE10      30.24S
JOLIET*        FAIR      60  27  28 NE13      30.22S
WAUKEGAN       FAIR      51  26  37 NE9       30.26S
6HR MIN TEMP:  51; 6HR MAX TEMP:  57;

DUPAGE AIRPORT FAIR      56  25  30 E13       30.23F
6HR MIN TEMP:  56; 6HR MAX TEMP:  62;

KANKAKEE*      FAIR      62  29  29 E12G18    30.20S
WHEELING       FAIR      55  24  30 NE9       30.27F
6HR MIN TEMP:  55; 6HR MAX TEMP:  59;

MORRIS*        FAIR      59  29  32 NE5       30.21R
ROMEOVILLE*    FAIR      57  29  34 NE14      30.23S
NORTHERLY ISL    N/A     45  29  53 N15         N/A
$$

LMZ740>746-230100-
SOUTHERN LAKE MICHIGAN

STATION/POSITION SKY/WX   TEMP    WIND        PRES    VSBY  WAVE
                          AIR SEA DIR/SP/G                  HT/PER
                          (F)     (DEG/KT/KT) (MB)    (MI)  (FT/S)
HARRISON CRIB              43     340/  8/ 10   N/A
BURNHAM HARBOR             45     360/ 10/ 14   N/A
CALUMET HARBOR             44     340/ 12/ 14 1023.8S
BURNS HARBOR               45      60/  8/ 13 1024.7S
MICHIGAN CITY              43      30/ 13/ 14   N/A
$$

ILZ025>027-034>036-040-047-049-050-058-095>099-230100-
WEST-CENTRAL ILLINOIS

CITY           SKY/WX    TMP DP  RH WIND       PRES   REMARKS
QUINCY         CLOUDY    64  27  24 NE13      30.10S
GALESBURG*     CLOUDY    65  30  26 NE9       30.17S
MACOMB*        CLOUDY    61  28  28 NE14      30.16S
JACKSONVILLE*  CLOUDY    65  31  28 NE15G22   30.09F
PITTSFIELD*    CLOUDY    66  34  31 E3        30.09F
$$

ILZ028>032-037-038-041>044-048-051>054-059>061-230100-
CENTRAL ILLINOIS

CITY           SKY/WX    TMP DP  RH WIND       PRES   REMARKS
PONTIAC        FAIR      64  30  27 E14       30.18S
BLOOMINGTON    FAIR      61  29  29 E16       30.16S
DECATUR        FAIR      64  31  28 E16       30.10S
PEORIA         FAIR      64  28  25 E13G22    30.15S
6HR MIN TEMP:  63; 6HR MAX TEMP:  68;

LACON*         FAIR      63  28  26 NE9G18    30.17S
LINCOLN*       MOCLDY    64  31  28 E14       30.12S
SPRINGFIELD    FAIR      66  32  28 NE15      30.10S
6HR MIN TEMP:  61; 6HR MAX TEMP:  73;

TAYLORVILLE    FAIR      65  32  29 E12G21    30.08S
6HR MIN TEMP:  59; 6HR MAX TEMP:  68;

$$

ILZ033-039-045-046-055>057-062-063-230100-
EAST-CENTRAL ILLINOIS

CITY           SKY/WX    TMP DP  RH WIND       PRES   REMARKS
CHAMPAIGN      FAIR      64  30  27 NE17G23   30.14R
DANVILLE*      FAIR      62  32  33 E13       30.14S
RANTOUL*       FAIR      64  32  29 E16       30.15S
MATTOON        FAIR      64  32  30 E14G22    30.10R
PARIS*         FAIR      63  32  31 E9        30.13S
$$

ILZ079-100>102-230100-
SOUTHWEST ILLINOIS

CITY           SKY/WX    TMP DP  RH WIND       PRES   REMARKS
ALTON          DRIZZLE   57  46  67 NE6       30.06S
CAHOKIA*       LGT RAIN  57  50  77 NE7       30.03F
SPARTA*        CLOUDY    56  56  98 NE12      30.02F
$$

ILZ064>066-069>071-074>076-080>082-084>086-088>090-092>094-230100-
SOUTH-CENTRAL ILLINOIS

CITY           SKY/WX    TMP DP  RH WIND       PRES   REMARKS
CARBONDALE     LGT RAIN  58  56  93 E13       29.99S
6HR MIN TEMP:  54; 6HR MAX TEMP:  58; 6HR PCP:  0.15;

CAIRO*         RAIN      58  57  97 E10       29.95S
EFFINGHAM*     LGT RAIN  64  40  40 NE13G18   30.09S
MARION         LGT RAIN  57  57 100 E12       30.00F
MT. VERNON     LGT RAIN  59  55  87 E8        30.05R
CENTRALIA*     DRIZZLE   61  53  76 E9        30.04S
SALEM*         LGT RAIN  64  49  58 E7        30.05S
METROPOLIS*    RAIN      59  57  95 E10       29.98S
$$

ILZ067-068-072-073-078-083-087-091-230100-
SOUTHEAST ILLINOIS

CITY           SKY/WX    TMP DP  RH WIND       PRES   REMARKS
LAWRENCEVILLE  LGT RAIN  62  47  57 NE13      30.08F
FLORA*         CLOUDY    65  47  52 E10       30.07R
FAIRFIELD*     RAIN      59  55  85 E6        30.05F
HARRISBURG*    LGT RAIN  58  58  97 E14G21    30.02F
ROBINSON*      CLOUDY    62  41  45 E7        30.11S
CARMI*         DRIZZLE   58  55  89 E10       30.05S
$$

ABBREVIATIONS USED IN REMARKS
   TC - TEMPERATURE IN CELSIUS
  WCI - WIND CHILL INDEX
   HX - HEAT INDEX
  VSB - VISIBILITY
$$





USA.gov is the U.S. government's official web portal to all federal, state and local government web resources and services.